Omaha, IA

12:10 PM CDT on June 21, 2018 (GMT -0500)
Eppley Airfield

Weather History for KOMA - August, 2017

Change the Weather History Date:

Sunday, August 13, 2017

  Actual Average Record
Temperature  
Mean Temperature 74 °F 75 °F  
Max Temperature 82 °F 86 °F 104 °F (1913)
Min Temperature 66 °F 65 °F 47 °F (1964)
Degree Days  
Heating Degree Days 0 0  
Month to date heating degree days 0 0  
Since 1 June heating degree days 0 18  
Since 1 July heating degree days 0 1  
Cooling Degree Days 9 10  
Month to date cooling degree days 85 141  
Year to date cooling degree days 973 818  
Since 1 June cooling degree days 888 736  
Growing Degree Days 24 (Base 50)    
Moisture  
Dew Point 59 °F    
Average Humidity 59    
Maximum Humidity 73    
Minimum Humidity 45    
Precipitation  
Precipitation 0.01 in 0.13 in 1.26 in (1957)
Month to date precipitation 0.34 1.63  
Year to date precipitation 16.02 20.92  
Snow  
Snow 0.00 in 0.00 in - ()
Month to date snowfall 0.0 0.0  
Since 1 July snowfall 0.0 0.0  
Snow Depth 0.00 in    
Sea Level Pressure  
Sea Level Pressure 29.92 in    
Wind  
Wind Speed 12 mph (SSE)    
Max Wind Speed 23 mph    
Max Gust Speed 28 mph    
Visibility 10 miles    
Events Rain    
T = Trace of Precipitation, MM = Missing Value Source: NWS Daily Summary

Daily Weather History Graph

Daily Weather History Graph

Search for Another Location

Airport or City:

Astronomy

Aug. 13, 2017 Rise Set
Actual Time 6:31 AM CDT 8:24 PM CDT
Civil Twilight 6:01 AM CDT 8:54 PM CDT
Nautical Twilight 5:24 AM CDT 9:30 PM CDT
Astronomical Twilight 4:45 AM CDT 10:10 PM CDT
Moon 11:56 PM CDT (8/13) 12:35 PM CDT (8/13)
Length of Visible Light 14h 53m
Length of Day
13h 53m
Waning Gibbous, 65% of the Moon is Illuminated
Aug 13
Waning Gibbous
Aug 14
Last Quarter
Aug 21
New
Aug 29
First Quarter
Sep 6
Full

Hourly Weather History & Observations

Time (CDT) Temp. Heat Index Dew Point Humidity Pressure Visibility Wind Dir Wind Speed Gust Speed Precip Events Conditions
12:52 AM 70.0 °F - 55.9 °F 61% 30.00 in 10.0 mi SE 8.1 mph - N/A   Overcast
1:52 AM 70.0 °F - 55.0 °F 59% 30.02 in 10.0 mi SE 5.8 mph - N/A   Overcast
2:52 AM 69.1 °F - 57.0 °F 65% 29.98 in 10.0 mi SE 8.1 mph - 0.00 in   Overcast
3:52 AM 68.0 °F - 55.9 °F 65% 29.97 in 10.0 mi SSE 6.9 mph - N/A   Overcast
4:52 AM 68.0 °F - 55.9 °F 65% 29.96 in 10.0 mi SSE 9.2 mph - N/A   Overcast
5:52 AM 66.9 °F - 57.9 °F 73% 29.96 in 10.0 mi SSE 5.8 mph - 0.00 in   Overcast
6:52 AM 66.9 °F - 57.9 °F 73% 29.97 in 10.0 mi South 6.9 mph - 0.00 in Rain Light Rain
7:52 AM 66.0 °F - 60.1 °F 81% 29.97 in 10.0 mi ESE 6.9 mph - 0.00 in Rain Light Rain
8:52 AM 66.0 °F - 60.1 °F 81% 29.97 in 10.0 mi SE 11.5 mph - 0.01 in   Overcast
9:52 AM 66.9 °F - 60.1 °F 79% 29.98 in 10.0 mi SSE 8.1 mph - 0.00 in Rain Light Rain
10:52 AM 69.1 °F - 61.0 °F 75% 29.97 in 10.0 mi SSE 10.4 mph - 0.00 in   Overcast
11:52 AM 73.9 °F - 62.1 °F 66% 29.96 in 10.0 mi South 13.8 mph - N/A   Mostly Cloudy
12:52 PM 78.1 °F - 60.1 °F 54% 29.94 in 10.0 mi SSE 16.1 mph 26.5 mph N/A   Scattered Clouds
1:52 PM 80.1 °F 80.6 °F 57.9 °F 47% 29.93 in 10.0 mi South 20.7 mph - N/A   Scattered Clouds
2:52 PM 79.0 °F - 57.9 °F 48% 29.91 in 10.0 mi South 17.3 mph - N/A   Scattered Clouds
3:52 PM 81.0 °F 81.1 °F 57.9 °F 45% 29.88 in 10.0 mi SSE 18.4 mph - N/A   Scattered Clouds
4:52 PM 81.0 °F 81.3 °F 59.0 °F 47% 29.86 in 10.0 mi SSE 10.4 mph - N/A   Scattered Clouds
5:52 PM 81.0 °F 81.6 °F 60.1 °F 49% 29.85 in 10.0 mi South 16.1 mph - N/A   Scattered Clouds
6:52 PM 80.1 °F 81.1 °F 61.0 °F 52% 29.83 in 10.0 mi SSE 12.7 mph - N/A   Mostly Cloudy
7:52 PM 78.1 °F - 61.0 °F 56% 29.82 in 10.0 mi SE 15.0 mph - N/A   Mostly Cloudy
8:52 PM 77.0 °F - 62.1 °F 60% 29.83 in 10.0 mi SSE 13.8 mph - N/A   Mostly Cloudy
9:52 PM 75.0 °F - 62.1 °F 64% 29.83 in 10.0 mi SE 13.8 mph - N/A   Mostly Cloudy
10:52 PM 73.9 °F - 62.1 °F 66% 29.80 in 10.0 mi SSE 17.3 mph - N/A   Overcast
11:52 PM 75.0 °F - 63.0 °F 66% 29.81 in 10.0 mi South 11.5 mph - N/A   Mostly Cloudy